Time,TemperatureF,DewpointF,PressureIn,WindDirection,WindDirectionDegrees,WindSpeedMPH,WindSpeedGustMPH,Humidity,HourlyPrecipIn,Conditions,Clouds,dailyrainin,SoftwareType,DateUTC
2013-08-02 00:00:00,78.0,78.0,-100.00,SE,138,3.0,-999.0,100,0.00,,,0.00,,2013-08-02 05:00:00,
2013-08-02 00:43:00,78.0,78.0,-100.00,SE,138,3.0,-999.0,100,0.00,,,0.00,,2013-08-02 05:43:00,
2013-08-02 00:53:00,78.0,78.0,-100.00,SE,138,3.0,-999.0,100,0.00,,,0.00,,2013-08-02 05:53:00,
2013-08-02 01:00:00,77.0,77.0,-100.00,ESE,115,2.0,-999.0,100,0.00,,,0.00,,2013-08-02 06:00:00,
2013-08-02 01:43:00,77.0,77.0,-100.00,ESE,115,2.0,-999.0,100,0.00,,,0.00,,2013-08-02 06:43:00,
2013-08-02 01:52:00,77.0,77.0,-100.00,ESE,115,2.0,-999.0,100,0.00,,,0.00,,2013-08-02 06:52:00,
2013-08-02 02:00:00,75.0,75.0,-100.00,SSE,149,3.0,-999.0,100,0.00,,,0.00,,2013-08-02 07:00:00,
2013-08-02 02:44:00,75.0,75.0,-100.00,SSE,149,3.0,-999.0,100,0.00,,,0.00,,2013-08-02 07:44:00,
2013-08-02 02:53:00,75.0,75.0,-100.00,SSE,149,3.0,-999.0,100,0.00,,,0.00,,2013-08-02 07:53:00,
2013-08-02 03:00:00,74.0,74.0,-100.00,SSE,153,4.0,-999.0,101,0.00,,,0.00,,2013-08-02 08:00:00,
2013-08-02 03:43:00,74.0,74.0,-100.00,SSE,153,4.0,-999.0,101,0.00,,,0.00,,2013-08-02 08:43:00,
2013-08-02 03:54:00,74.0,74.0,-100.00,SSE,153,4.0,-999.0,101,0.00,,,0.00,,2013-08-02 08:54:00,
2013-08-02 04:00:00,75.0,75.0,-100.00,SE,145,4.0,-999.0,101,0.00,,,0.00,,2013-08-02 09:00:00,
2013-08-02 04:33:00,75.0,75.0,-100.00,SE,145,4.0,-999.0,101,0.00,,,0.00,,2013-08-02 09:33:00,
2013-08-02 04:44:00,75.0,75.0,-100.00,SE,145,4.0,-999.0,101,0.00,,,0.00,,2013-08-02 09:44:00,
2013-08-02 04:53:00,75.0,75.0,-100.00,SE,145,4.0,-999.0,101,0.00,,,0.00,,2013-08-02 09:53:00,
2013-08-02 05:00:00,75.0,75.0,-100.00,SE,142,4.0,-999.0,101,0.00,,,0.00,,2013-08-02 10:00:00,
2013-08-02 05:44:00,75.0,75.0,-100.00,SE,142,4.0,-999.0,101,0.00,,,0.00,,2013-08-02 10:44:00,
2013-08-02 05:52:00,75.0,75.0,-100.00,SE,142,4.0,-999.0,101,0.00,,,0.00,,2013-08-02 10:52:00,
2013-08-02 06:00:00,75.0,75.0,-100.00,SE,144,4.0,-999.0,101,0.00,,,0.00,,2013-08-02 11:00:00,
2013-08-02 06:43:00,75.0,75.0,-100.00,SE,144,4.0,-999.0,101,0.00,,,0.00,,2013-08-02 11:43:00,
2013-08-02 06:52:00,75.0,75.0,-100.00,SE,144,4.0,-999.0,101,0.00,,,0.00,,2013-08-02 11:52:00,
2013-08-02 07:00:00,75.0,75.0,-100.00,SE,143,6.0,-999.0,101,0.00,,,0.00,,2013-08-02 12:00:00,
2013-08-02 07:43:00,75.0,75.0,-100.00,SE,143,6.0,-999.0,101,0.00,,,0.00,,2013-08-02 12:43:00,
2013-08-02 07:52:00,75.0,75.0,-100.00,SE,143,6.0,-999.0,101,0.00,,,0.00,,2013-08-02 12:52:00,
2013-08-02 08:00:00,76.0,76.0,-100.00,SE,133,7.0,-999.0,100,0.00,,,0.00,,2013-08-02 13:00:00,
2013-08-02 08:33:00,76.0,76.0,-100.00,SE,133,7.0,-999.0,100,0.00,,,0.00,,2013-08-02 13:33:00,
2013-08-02 08:43:00,76.0,76.0,-100.00,SE,133,7.0,-999.0,100,0.00,,,0.00,,2013-08-02 13:43:00,
2013-08-02 08:52:00,76.0,76.0,-100.00,SE,133,7.0,-999.0,100,0.00,,,0.00,,2013-08-02 13:52:00,
2013-08-02 09:00:00,78.0,78.0,-100.00,SE,140,9.0,-999.0,100,0.00,,,-99.99,,2013-08-02 14:00:00,
2013-08-02 09:43:00,78.0,78.0,-100.00,SE,140,9.0,-999.0,100,0.00,,,-99.99,,2013-08-02 14:43:00,
2013-08-02 09:53:00,78.0,78.0,-100.00,SE,140,9.0,-999.0,100,0.00,,,-99.99,,2013-08-02 14:53:00,
2013-08-02 10:00:00,82.0,80.0,-100.00,SSE,150,5.0,-999.0,93,0.00,,,-99.99,,2013-08-02 15:00:00,
2013-08-02 10:43:00,82.0,80.0,-100.00,SSE,150,5.0,-999.0,93,0.00,,,-99.99,,2013-08-02 15:43:00,
2013-08-02 10:52:00,82.0,80.0,-100.00,SSE,150,5.0,-999.0,93,0.00,,,-99.99,,2013-08-02 15:52:00,
2013-08-02 11:00:00,85.0,80.0,-100.00,SE,135,4.0,-999.0,86,0.00,,,0.00,,2013-08-02 16:00:00,
2013-08-02 11:32:00,85.0,80.0,-100.00,SE,135,4.0,-999.0,86,0.00,,,0.00,,2013-08-02 16:32:00,
2013-08-02 11:43:00,85.0,80.0,-100.00,SE,135,4.0,-999.0,86,0.00,,,0.00,,2013-08-02 16:43:00,
2013-08-02 11:53:00,85.0,80.0,-100.00,SE,135,4.0,-999.0,86,0.00,,,0.00,,2013-08-02 16:53:00,
2013-08-02 12:00:00,89.0,81.0,-100.00,SSE,159,6.0,-999.0,78,0.00,,,0.00,,2013-08-02 17:00:00,
2013-08-02 12:35:00,89.0,81.0,-100.00,SSE,159,6.0,-999.0,78,0.00,,,0.00,,2013-08-02 17:35:00,
2013-08-02 12:43:00,89.0,81.0,-100.00,SSE,159,6.0,-999.0,78,0.00,,,0.00,,2013-08-02 17:43:00,
2013-08-02 12:52:00,89.0,81.0,-100.00,SSE,159,6.0,-999.0,78,0.00,,,0.00,,2013-08-02 17:52:00,
2013-08-02 13:00:00,90.0,81.0,-100.00,SSE,156,8.0,-999.0,75,0.00,,,0.00,,2013-08-02 18:00:00,
2013-08-02 13:43:00,90.0,81.0,-100.00,SSE,156,8.0,-999.0,75,0.00,,,0.00,,2013-08-02 18:43:00,
2013-08-02 13:52:00,90.0,81.0,-100.00,SSE,156,8.0,-999.0,75,0.00,,,0.00,,2013-08-02 18:52:00,
2013-08-02 15:00:00,97.0,77.0,-100.00,South,188,8.0,-999.0,54,0.00,,,0.00,,2013-08-02 20:00:00,
2013-08-02 15:43:00,97.0,77.0,-100.00,South,188,8.0,-999.0,54,0.00,,,0.00,,2013-08-02 20:43:00,
2013-08-02 15:52:00,97.0,77.0,-100.00,South,188,8.0,-999.0,54,0.00,,,0.00,,2013-08-02 20:52:00,
2013-08-02 16:00:00,99.0,77.0,-100.00,South,177,6.0,-999.0,50,0.00,,,0.00,,2013-08-02 21:00:00,
2013-08-02 16:43:00,99.0,77.0,-100.00,South,177,6.0,-999.0,50,0.00,,,0.00,,2013-08-02 21:43:00,
2013-08-02 16:53:00,99.0,77.0,-100.00,South,177,6.0,-999.0,50,0.00,,,0.00,,2013-08-02 21:53:00,
2013-08-02 17:00:00,99.0,75.0,-100.00,South,184,6.0,-999.0,48,0.00,,,0.00,,2013-08-02 22:00:00,
2013-08-02 17:43:00,99.0,75.0,-100.00,South,184,6.0,-999.0,48,0.00,,,0.00,,2013-08-02 22:43:00,
2013-08-02 17:52:00,99.0,75.0,-100.00,South,184,6.0,-999.0,48,0.00,,,0.00,,2013-08-02 22:52:00,
2013-08-02 18:00:00,97.0,79.0,-100.00,SE,139,5.0,-999.0,58,0.00,,,0.00,,2013-08-02 23:00:00,
2013-08-02 18:32:00,97.0,79.0,-100.00,SE,139,5.0,-999.0,58,0.00,,,0.00,,2013-08-02 23:32:00,
2013-08-02 18:44:00,97.0,79.0,-100.00,SE,139,5.0,-999.0,58,0.00,,,0.00,,2013-08-02 23:44:00,
2013-08-02 18:53:00,97.0,79.0,-100.00,SE,139,5.0,-999.0,58,0.00,,,0.00,,2013-08-02 23:53:00,
2013-08-02 19:00:00,93.0,81.0,-100.00,SSE,152,6.0,-999.0,67,0.00,,,0.00,,2013-08-03 00:00:00,
2013-08-02 19:43:00,93.0,81.0,-100.00,SSE,152,6.0,-999.0,67,0.00,,,0.00,,2013-08-03 00:43:00,
2013-08-02 19:52:00,93.0,81.0,-100.00,SSE,152,6.0,-999.0,67,0.00,,,0.00,,2013-08-03 00:52:00,
2013-08-02 20:00:00,89.0,80.0,-100.00,SE,144,4.0,-999.0,75,0.00,,,0.00,,2013-08-03 01:00:00,
2013-08-02 20:32:00,89.0,80.0,-100.00,SE,144,4.0,-999.0,75,0.00,,,0.00,,2013-08-03 01:32:00,
2013-08-02 20:43:00,89.0,80.0,-100.00,SE,144,4.0,-999.0,75,0.00,,,0.00,,2013-08-03 01:43:00,
2013-08-02 20:53:00,89.0,80.0,-100.00,SE,144,4.0,-999.0,75,0.00,,,0.00,,2013-08-03 01:53:00,
2013-08-02 21:00:00,86.0,81.0,-100.00,SSE,150,4.0,-999.0,84,0.00,,,0.00,,2013-08-03 02:00:00,
2013-08-02 21:32:00,86.0,81.0,-100.00,SSE,150,4.0,-999.0,84,0.00,,,0.00,,2013-08-03 02:32:00,
2013-08-02 21:43:00,86.0,81.0,-100.00,SSE,150,4.0,-999.0,84,0.00,,,0.00,,2013-08-03 02:43:00,
2013-08-02 21:52:00,86.0,81.0,-100.00,SSE,150,4.0,-999.0,84,0.00,,,0.00,,2013-08-03 02:52:00,
2013-08-02 22:00:00,85.0,82.0,-100.00,SSE,151,5.0,-999.0,91,0.00,,,0.00,,2013-08-03 03:00:00,
2013-08-02 22:43:00,85.0,82.0,-100.00,SSE,151,5.0,-999.0,91,0.00,,,0.00,,2013-08-03 03:43:00,
2013-08-02 22:53:00,85.0,82.0,-100.00,SSE,151,5.0,-999.0,91,0.00,,,0.00,,2013-08-03 03:53:00,
2013-08-02 23:00:00,83.0,81.0,-100.00,SSE,156,4.0,-999.0,95,0.00,,,0.00,,2013-08-03 04:00:00,
2013-08-02 23:32:00,83.0,81.0,-100.00,SSE,156,4.0,-999.0,95,0.00,,,0.00,,2013-08-03 04:32:00,
2013-08-02 23:43:00,83.0,81.0,-100.00,SSE,156,4.0,-999.0,95,0.00,,,0.00,,2013-08-03 04:43:00,
2013-08-02 23:53:00,83.0,81.0,-100.00,SSE,156,4.0,-999.0,95,0.00,,,0.00,,2013-08-03 04:53:00,